CZ-4C R/B, 41039

Orbit data source: Space-Track

CZ-4C R/B, 41039 is space debris in SSO originally from a launch on Thu, 26 Nov 2015 UTC launched from the Taiyaun Space Center, China (TSC). Debris objects in space refer to the collection of defunct objects orbiting the Earth. Examples of debris include non-operational satellites, rocket bodies, and fragments generated from explosions, collisions, or faulty payload assembly.

Loading next visibility...
Identifier
41039, 2015-069B
Orbit
SSO
Country
Flag of CNCN / PRC
Related business
Manufacturer
SAST
Mission
Spacecraft
Bus & Motor
CZ-4 STAGE 3, Unknown motor
Mass
~1,000 kg wet, ~1,000 kg dry
Launch date (UTC)
2015-11-26 (10 years ago)
Launch vehicle
Unknown
Launch site
Taiyaun Space Center, China (TSC)
Object type
Payload
Rocket body
Debris
Shape & HBR
Cyl, 1.4 m
Radar Cross Section
7.676 m², Large (>1 m²)

Expand to show TLE details & history
Last TLE update: 11 hours ago

TLE from 11 hours ago
0 CZ-4C R/B
1 41039U 15069B   25309.19066490  .00010365  00000-0  36261-3 0  9998
2 41039  97.5088  12.1811 0060421 237.6686 121.8695 15.27956454547850
Epoch: 2025-11-05T04:34Z
TLE epoch observation values (Epoch: 2025-11-05T04:34:33.447Z)
Latitude
0.00005°
Longitude
-101.12516°
Altitude
507.089 km
Speed
7.598 km/s
True Right ascension
00h 48m 43s
True Declination
0° 00' 00"
Sunlit
Object was in full shadow at epoch
Visualization orbit readout
Latitude
Unknown
Longitude
Unknown
Altitude
Unknown
Speed
Unknown
Apparent Right ascension
Unknown
Apparent Declination
Unknown
Sunlit
N/A
Visualization observer readout
Local Sidereal Time
11:32:57
Azimuth
Unknown
Elevation
Unknown
Doppler factor
Unknown
Orbital elements
Apogee altitude
520.312 km
Perigee altitude
437.451 km
Semi-major axis
6,857.019 km
Eccentricity
0.00604
Inclination
97.5088°
RAAN
12.1811°
Arg. of periapsis
237.6686°
True anomaly
122.45515°
Mean anomaly
121.8695°
Eccentric anomaly
122.16256°
Mean motion
3.82244 °/min
Orbital period
94.18 mins
BSTAR
0.00036261
Loading maneuver chart data...
Computing Atmospheric mass density...
Loading historical data...
Loading historical data...
Loading historical data...
Loading historical data...
Loading historical data...
Loading historical data...
Loading historical data...
Other satellites on launch #69 in the year 2015 (2015-11-26 UTC)

Documentation

Showing up to 5 results
|